Location: Newark
(52.0178°N, 4.7453°W)
Time: 18:13:10
(UTC+00:00)

ISS - Pass Details

Date: 27 March 2019
Orbit: 408 x 410 km, 51.6° (Epoch: 25 April)

Event Time Altitude Azimuth Distance (km) Brightness Sun altitude
Rises 20:42:08 0° 265° (W) 2,336 1.0 -18.1°
Reaches altitude 10° 20:44:13 10° 265° (W) 1,475 -0.2 -18.3°
Maximum altitude 20:47:32 86° 177° (S) 416 -3.9 -18.8°
Enters shadow 20:47:46 75° 104° (ESE) 429 -4.0 -18.8°
